Probability
0 0 0 0 0 0 0 0 0 0 0 0 0 0 0 0 0 1 2 3 2 1 0 0 0 0 0 0 0 0 0 1 2 2 3 3 3 3
0 0 0 0 0 0 0 0 0 0 0 0 0 0 0 0 0 1 2 2 1 0 0 0 0 0 0 0 0 0 0 0 1 1 2 2 2 2
1 1 1 1 0 0 0 0 0 0 1 1 0 0 0 0 0 0 1 1 0 0 0 0 0 0 0 0 0 0 0 0 0 0 1 1 1 1
2 2 2 2 1 1 2 2 2 2 2 2 1 1 0 0 0 0 0 0 0 0 0 0 0 0 0 0 0 0 0 0 0 0 0 0 0 0
3 3 3 3 3 4 4 4 4 3 3 3 2 1 0 0 0 0 0 0 0 0 0 0 0 0 0 0 0 0 0 0 0 0 0 0 0 0
3 3 3 4 5 7 7 7 6 4 3 3 3 2 1 0 0 0 0 0 0 1 0 0 0 0 0 0 0 0 0 0 0 0 0 0 0 0
4 4 5 5 6 7 8 7 7 5 3 3 3 3 3 2 1 0 0 0 0 0 0 0 0 0 0 0 0 0 0 0 0 0 0 0 0 0
5 6 7 7 7 7 7 7 6 5 4 4 4 4 3 2 2 2 2 1 1 0 0 0 0 0 0 0 0 0 0 0 0 0 0 0 0 0
6 6 8 9 8 8 7 7 6 4 4 5 5 4 2 2 3 4 5 4 2 1 0 0 0 0 0 0 0 0 0 0 0 0 0 0 0 0
6 7 8 9 9 8 8 8 7 4 3 3 4 3 1 1 2 4 5 5 3 1 0 0 0 0 0 0 0 0 0 0 0 0 0 0 0 0
5 6 8 9 9 7 6 7 6 4 2 1 1 1 0 0 1 2 4 4 3 2 2 1 1 0 0 0 0 0 0 0 0 0 0 0 0 0
4 5 7 8 6 4 4 5 4 3 1 0 0 0 1 1 1 2 3 3 3 3 4 4 3 1 1 0 0 0 0 0 0 0 0 0 0 0
3 4 5 4 3 1 2 3 3 2 1 0 0 1 2 2 2 2 3 3 3 3 4 4 4 3 2 1 0 0 0 0 0 0 0 0 0 0
3 3 3 2 1 0 1 1 1 1 0 1 1 2 3 4 4 4 4 3 3 3 3 3 4 3 3 2 1 0 0 0 0 0 0 0 0 0
2 2 2 1 0 0 0 0 0 0 0 2 3 3 4 5 6 6 5 3 2 2 2 2 3 3 3 3 2 1 0 0 0 0 0 0 0 0
1 1 1 0 1 1 1 1 0 0 0 1 2 3 4 5 6 6 6 4 3 2 2 1 1 2 3 3 3 2 1 0 0 0 0 0 0 0
0 0 1 1 2 2 2 2 1 0 0 0 1 2 3 4 6 6 6 6 5 5 3 2 1 2 2 3 3 3 1 0 0 0 0 0 0 0
0 1 2 2 2 2 2 2 1 0 0 0 1 2 2 4 5 6 6 6 7 7 5 4 3 2 2 2 3 3 2 1 0 0 0 0 0 0
1 2 3 3 1 1 1 1 0 0 0 0 1 1 2 3 5 5 6 6 6 6 5 4 4 4 3 3 3 2 2 3 2 1 1 1 1 0
1 2 3 2 1 0 0 0 0 0 0 0 0 1 2 2 3 3 4 4 3 3 3 3 4 5 5 4 3 2 2 3 4 3 2 2 2 1
2 2 2 1 0 0 0 0 0 0 0 0 0 1 1 1 1 1 2 1 1 1 1 1 3 4 4 4 3 2 1 2 3 3 3 3 3 2
3 2 1 0 0 0 0 0 0 0 0 0 0 0 0 0 0 0 0 0 0 0 0 1 2 3 3 3 2 1 0 0 1 1 1 2 2 1
3 2 1 0 0 1 1 1 0 0 0 0 0 1 1 1 0 0 0 0 0 0 0 0 1 2 3 3 2 1 0 0 0 0 0 1 1 0
Wind_Speed
1 1 1 1 1 1 2 3 3 1 2 2 2 1 1 2 2 2 1 2 3 4 4 4 4 4 4 3 3 3 3 3 3 3 3 3 3 4
1 1 1 1 0 0 1 1 2 3 2 2 2 2 1 2 2 2 2 2 3 3 4 4 5 4 4 4 4 3 3 3 3 3 3 3 3 3
1 1 1 1 0 0 0 0 1 2 2 2 1 1 1 1 1 1 1 1 2 4 4 4 4 4 4 4 4 4 4 4 5 4 4 4 4 3
2 1 1 1 1 1 1 1 1 2 2 2 1 1 1 2 2 2 2 2 2 3 5 5 5 4 4 4 4 5 5 5 5 5 5 5 5 5
2 3 2 2 1 1 1 1 1 1 2 2 2 1 1 1 0 1 1 1 2 3 4 5 5 5 5 5 5 5 6 6 6 6 6 6 5 5
2 3 2 3 3 3 2 2 1 1 1 1 1 1 1 1 1 1 1 1 2 2 2 3 4 6 6 6 6 6 6 6 6 6 6 6 6 5
2 2 3 3 4 3 3 2 2 2 1 1 2 1 1 1 2 2 2 2 2 2 1 2 2 2 3 5 6 7 7 7 7 6 6 7 7 6
2 2 2 2 3 3 4 4 4 4 3 3 2 3 3 3 2 2 1 1 2 2 2 3 2 3 3 3 6 8 8 8 7 7 7 7 7 6
3 3 2 2 2 2 2 3 4 5 6 5 4 4 4 4 3 3 3 3 4 3 2 3 2 3 4 4 7 9 9 9 8 8 7 7 7 6
3 4 3 3 3 2 2 1 3 3 5 4 5 5 5 4 5 5 4 3 2 2 2 2 2 3 3 3 6 9 9 9 9 9 9 8 8 7
4 3 4 4 5 4 2 2 3 4 4 6 6 6 6 6 4 2 2 1 2 3 2 2 2 2 2 3 4 6 8 9 9 9 9 9 9 7
3 3 5 5 6 5 3 3 4 5 3 2 3 4 4 5 6 5 4 3 2 3 3 3 2 1 2 2 2 2 3 6 7 8 9 9 9 5
3 3 3 6 6 6 5 5 7 5 3 3 3 3 3 3 4 4 5 5 4 4 3 3 3 2 3 2 2 2 3 3 3 5 7 9 10 9
4 3 3 5 6 6 5 6 6 4 2 2 2 3 3 4 4 4 5 5 5 6 5 4 3 4 3 2 3 2 2 3 3 3 3 5 7 9
3 4 4 5 5 4 5 5 3 2 3 3 4 5 4 4 3 3 3 3 4 5 4 4 4 3 3 4 3 3 2 3 4 3 3 4 5 4
3 3 4 4 3 3 3 3 2 3 4 4 4 4 3 2 3 3 3 2 2 3 4 4 4 5 4 4 4 4 3 3 3 4 4 4 4 5
1 0 1 1 1 2 2 2 2 2 3 3 3 3 3 3 3 3 3 2 2 3 4 3 2 3 4 4 3 4 3 3 4 4 4 4 5 6
3 1 2 2 3 3 3 3 2 3 3 3 3 3 4 4 4 3 2 3 3 4 4 3 1 1 1 2 5 5 4 4 3 4 4 5 5 5
2 2 3 3 3 3 3 3 3 3 3 3 3 3 3 3 3 3 3 3 4 4 4 3 2 3 3 4 5 5 5 4 3 4 4 5 5 6
3 3 3 3 3 3 3 3 3 3 3 3 3 3 3 3 3 4 4 4 4 4 3 3 3 4 6 5 4 3 6 5 4 4 4 3 3 3
4 3 3 3 3 3 4 3 3 3 3 3 3 3 3 3 4 4 4 5 4 3 4 5 6 6 3 1 1 3 3 5 6 4 4 3 2 2
4 3 3 3 3 3 3 3 3 3 3 3 3 3 3 4 4 5 4 4 4 4 5 4 3 1 2 3 4 4 4 3 5 6 6 7 5 5
4 3 3 3 3 3 3 3 3 3 3 3 3 4 4 4 4 4 4 4 4 4 3 3 2 2 3 4 4 4 5 4 2 2 3 6 9 10
Wind_Direction
195 176 184 237 195 191 170 163 164 207 266 263 258 246 214 194 197 196 215 212 203 202 206 213 225 224 217 210 213 213 205 190 193 205 216 223 230 222
183 149 200 249 235 209 186 190 170 175 229 254 241 249 216 196 186 192 208 206 215 214 211 213 224 222 217 213 207 205 204 198 196 203 216 222 225 212
183 162 201 206 207 219 191 198 188 165 205 261 262 266 201 209 185 202 209 217 237 227 220 216 222 223 222 218 212 211 212 212 208 208 212 207 200 200
202 191 224 209 219 220 194 208 216 196 182 224 254 247 231 224 203 205 216 221 236 237 227 223 221 221 222 224 221 218 218 216 213 211 209 201 196 199
201 197 213 183 227 235 216 216 227 215 179 182 226 232 240 248 304 266 247 241 242 245 236 235 230 226 224 224 226 221 219 217 216 214 209 201 194 194
220 208 204 192 209 214 217 218 211 204 180 175 209 244 243 254 151 223 285 277 258 254 247 243 238 232 229 229 229 222 220 218 219 215 208 201 197 195
244 229 221 204 204 207 206 205 189 188 189 193 211 217 231 209 219 214 234 268 273 243 246 252 239 238 238 239 234 225 221 219 217 211 204 199 196 194
230 253 247 223 230 231 223 213 195 190 196 196 207 216 231 222 219 214 210 214 267 246 201 252 211 235 238 230 232 224 221 218 214 208 202 197 194 195
220 232 248 233 225 231 241 246 243 230 207 194 202 220 215 215 199 212 216 215 235 231 182 246 228 238 243 238 228 224 221 218 214 210 205 199 196 194
229 222 222 237 226 209 217 256 262 252 233 213 210 221 218 211 201 204 211 227 266 251 174 224 244 244 255 241 231 219 218 218 215 211 207 204 201 200
247 232 219 225 231 204 190 242 274 281 265 238 228 230 226 219 200 173 184 181 256 255 205 197 232 250 267 256 246 226 223 221 216 212 210 207 203 200
260 253 237 233 234 214 204 217 248 261 264 273 257 255 240 231 212 195 194 200 220 248 219 186 213 196 274 270 245 228 224 228 222 219 214 208 199 189
244 257 258 250 242 234 220 214 231 238 238 239 250 259 256 245 233 220 208 199 209 235 220 180 199 201 210 250 271 235 215 219 215 225 219 209 200 191
231 240 249 257 255 248 235 235 238 229 225 235 243 247 246 249 245 235 227 222 221 227 222 188 197 202 201 220 247 244 228 222 209 217 215 206 209 208
234 245 258 261 260 255 254 253 234 211 214 230 239 243 237 238 240 248 248 240 248 249 235 213 206 208 201 213 223 220 225 231 210 210 210 204 201 196
258 272 269 262 258 266 274 265 232 220 217 229 239 248 251 244 238 230 233 236 259 279 264 234 214 202 217 226 217 226 214 213 211 212 209 216 211 204
191 357 332 319 299 298 295 278 263 254 243 242 240 250 252 247 246 235 225 220 225 254 276 283 250 220 218 212 225 234 227 226 217 201 199 221 227 217
147 207 243 245 249 254 260 270 264 252 249 247 246 242 242 243 247 241 227 225 237 244 251 254 250 299 307 271 224 225 223 227 223 203 197 212 234 229
180 230 238 238 243 244 243 247 254 252 245 242 242 245 245 244 240 240 237 238 245 248 250 242 212 201 231 261 266 219 214 227 217 212 213 211 226 231
216 231 242 246 245 243 244 244 248 250 243 243 243 244 244 244 245 246 241 238 242 246 253 249 227 217 221 233 243 251 220 211 210 219 225 226 239 248
233 235 236 235 237 239 243 244 245 245 244 241 243 245 245 244 250 249 245 248 243 239 243 247 244 239 226 196 249 272 258 229 213 210 204 205 225 229
238 237 237 234 236 241 243 245 246 248 248 244 246 245 244 242 248 252 250 243 236 237 243 252 257 239 199 215 239 252 260 267 249 237 219 197 191 202
240 237 236 242 249 252 250 251 251 254 254 254 255 252 247 247 246 243 245 244 242 244 248 249 255 247 240 231 235 243 249 252 246 244 254 242 229 226